FREGAT DEB, 45833

Orbit data source: Space-Track

FREGAT DEB, 45833 is space debris in LEO originally from a launch on Mon, 18 Jul 2011 UTC launched from the Tyuratam Missile And Space Complex (TTMTR). Debris objects in space refer to the collection of defunct objects orbiting the Earth. Examples of debris include non-operational satellites, rocket bodies, and fragments generated from explosions, collisions, or faulty payload assembly.

Loading next visibility...
Identifier
45833, 2011-037BT
Orbit
LEO
Country
Flag of CISCIS
Related business
Manufacturer
Lavochkin
Mission
Spacecraft
Bus & Motor
Unknown
Mass
Unknown
Launch date (UTC)
2011-07-18 (14 years ago)
Launch vehicle
Unknown
Launch site
Tyuratam Missile And Space Complex (TTMTR)
Object type
Payload
Rocket body
Debris
Shape & HBR
Unknown shape, 1.1 m
Radar Cross Section
Small (<0.1 m²)

Expand to show TLE details & history
Last TLE update: 15 hours ago

TLE from 15 hours ago
0 FREGAT DEB
1 45833U 11037BT  25297.41240166 -.00000895  00000-0 -23575-2 0  9992
2 45833  51.5928 343.6822 2015903 133.5971 245.0861 10.23914025201323
Epoch: 2025-10-24T09:53Z
TLE epoch observation values (Epoch: 2025-10-24T09:53:51.503Z)
Latitude
0.00001°
Longitude
162.15994°
Altitude
3,602.216 km
Speed
5.95 km/s
True Right ascension
22h 54m 43s
True Declination
0° 00' 00"
Sunlit
Object was in daylight at epoch
Visualization orbit readout
Latitude
Unknown
Longitude
Unknown
Altitude
Unknown
Speed
Unknown
Apparent Right ascension
Unknown
Apparent Declination
Unknown
Sunlit
N/A
Visualization observer readout
Local Sidereal Time
20:16:23
Azimuth
Unknown
Elevation
Unknown
Doppler factor
Unknown
Orbital elements
Apogee altitude
4,386.586 km
Perigee altitude
774.6 km
Semi-major axis
8,958.73 km
Eccentricity
0.20159
Inclination
51.5928°
RAAN
343.6822°
Arg. of periapsis
133.5971°
True anomaly
226.47897°
Mean anomaly
245.0861°
Eccentric anomaly
235.56033°
Mean motion
2.55961 °/min
Orbital period
140.65 mins
BSTAR
-0.0023575
Loading maneuver chart data...
Computing Atmospheric mass density...
Loading historical data...
Loading historical data...
Loading historical data...
Loading historical data...
Loading historical data...
Loading historical data...
Loading historical data...

Documentation

Showing up to 5 results
|